Flag for Norway Weather past 2 weeks in Bardufoss, Norway

Now
43 °F

Partly sunny.


Feels Like: 40 °F
Forecast: 26 / 39 °F
Wind: 5 mph from Northeast

Location: Bardufoss

Current Time: Apr 27, 2015 at 3:49:02 PM

Latest Report: Apr 27, 2015 at 3:20 PM


Visibility: N/A

Pressure: 29.62 "Hg

Humidity: 46%

Dew point: 23 °F

Location of BardufossLocation

Historic Weather in Bardufoss — Graph

°F

Bardufoss temperature yesterday

Maximum temperature yesterday: 39 °F (at 12:50 PM)
Minimum temperature yesterday: 28 °F (at 3:50 AM)
Average temperature yesterday: 36 °F

Past Weeks' High & Low Weather Summary

 TemperatureHumidityPressure
High50 °F (Apr 16, 11:50 AM)100% (Apr 12, 11:50 PM)30.12 "Hg (Apr 12, 11:50 PM)
Low25 °F (Apr 14, 5:20 AM)35% (Apr 16, 11:50 AM)29.18 "Hg (Apr 23, 6:50 AM)
Average38 °F67%29.72 "Hg
* Reported Apr 12 2:20 PM — Apr 27 2:50 PM, Bardufoss, Weather by CustomWeather, © 2015

Note: Actual official high and low records may vary slightly from our data, if they occured in-between our weather recording intervals... More about our weather records

Advertising

Bardufoss weather history for previous 24 hours

 ConditionsComfort  
Time TempWeatherWind HumidityBarometerVisibility
2:50 PM
Mon, Apr 27
41 °FBroken clouds.7 mph45%29.62 "HgN/A
2:20 PM41 °FBroken clouds.7 mph49%29.62 "HgN/A
1:50 PM41 °FBroken clouds.8 mph45%29.62 "HgN/A
1:20 PM41 °FPartly sunny.8 mph45%29.62 "HgN/A
12:20 PM41 °FPartly sunny.3 mph45%29.62 "HgN/A
11:50 AM43 °FPartly sunny.1 mph42%29.62 "HgN/A
11:20 AM41 °FScattered clouds.2 mph45%29.62 "HgN/A
10:50 AM39 °FScattered clouds.3 mph48%29.62 "HgN/A
10:20 AM39 °FScattered clouds.3 mph48%29.62 "HgN/A
9:50 AM37 °FScattered clouds.6 mph48%29.65 "HgN/A
9:20 AM37 °FPartly sunny.9 mph52%29.65 "HgN/A
8:50 AM36 °FPartly sunny.9 mph56%29.65 "HgN/A
8:20 AM36 °FSunny.8 mph56%29.65 "Hg10 mi
7:50 AM34 °FPassing clouds.8 mph60%29.65 "HgN/A
7:20 AM34 °FSunny.7 mph60%29.65 "Hg10 mi
6:50 AM32 °FPassing clouds.7 mph64%29.65 "HgN/A
6:20 AM32 °FSunny.7 mph64%29.65 "Hg10 mi
5:50 AM32 °FSunny.6 mph64%29.65 "Hg10 mi
5:20 AM28 °FSunny.3 mph74%29.65 "Hg10 mi
4:50 AM25 °FClear.No wind86%29.65 "Hg10 mi
2:50 AM27 °FClear.2 mph80%29.65 "Hg10 mi
1:50 AM30 °FClear.6 mph69%29.65 "Hg10 mi
12:50 AM28 °FClear.No wind74%29.65 "Hg10 mi
11:50 PM
Sun, Apr 26
34 °FPassing clouds.3 mph60%29.65 "HgN/A
10:50 PM36 °FClear.9 mph56%29.65 "Hg10 mi
9:50 PM36 °FPassing clouds.8 mph56%29.65 "HgN/A
7:50 PM39 °FPassing clouds.10 mph48%29.65 "HgN/A
7:20 PM39 °FPassing clouds.10 mph48%29.65 "HgN/A
6:50 PM39 °FSunny.12 mph48%29.65 "Hg10 mi
6:20 PM39 °FSunny.15 mph48%29.65 "Hg10 mi
5:50 PM39 °FSunny.14 mph48%29.65 "Hg10 mi
5:20 PM39 °FSunny.15 mph48%29.65 "Hg10 mi
4:50 PM39 °FSunny.15 mph48%29.65 "Hg10 mi
4:20 PM39 °FSunny.16 mph48%29.68 "Hg10 mi
3:50 PM39 °FSunny.15 mph45%29.68 "Hg10 mi
3:20 PM39 °FSunny.14 mph45%29.68 "Hg10 mi
Weather by CustomWeather, © 2015

See weather overviewHow to use our weather pages